Regional Weather Roundup
Issued by NWS Grand Forks, ND

Home | Current Version | Previous Version | Text Only | Print | Product List | Glossary On
Versions: 1 2 3 4 5 6 7 8 9 10 11 12 13 14 15 16 17 18 19 20 21 22 23 24 25 26 27 28 29 30 31 32 33 34 35 36 37 38 39 40 41 42 43 44 45 46 47 48 49 50
000
ASUS43 KFGF 211231
RWRFGF
PRAIRIE TO PINES  WEATHER ROUNDUP
NATIONAL WEATHER SERVICE EASTERN NORTH DAKOTA/GRAND FORKS ND
700 AM CDT FRI JUL 21 2017

 **SATELLITE DATA USED TO AUGMENT SKY COVER AT AUTOMATED STATIONS**
 *****  WEATHER ACROSS EASTERN NORTH DAKOTA  *****

CITY           SKY/WX    TMP DP  RH WIND       PRES   REMARKS
GRAND FORKS    MOCLDY    71  68  90 E8        29.79F
6HR MIN TEMP:  69; 6HR MAX TEMP:  72;

GRAND FRKS AFB FAIR      68  67  95 E6        29.79F
DEVILS LAKE    FAIR      68  64  87 E8        29.81F
6HR MIN TEMP:  67; 6HR MAX TEMP:  77; 6HR PCP: TRACE;

FARGO          FAIR      73  70  90 E7        29.78F
WAHPETON ARPT  FAIR      72  66  83 SE14      29.81R
$$

 ***** WEATHER ACROSS CENTRAL AND WESTERN NORTH DAKOTA  *****

CITY           SKY/WX    TMP DP  RH WIND       PRES   REMARKS
BISMARCK       FAIR      67  64  90 NE5       29.79F
6HR MIN TEMP:  66; 6HR MAX TEMP:  76;

MINOT          FAIR      64  60  87 NW6       29.81S
6HR MIN TEMP:  63; 6HR MAX TEMP:  70;

JAMESTOWN      FAIR      68  66  93 E6        29.78S
6HR MIN TEMP:  66; 6HR MAX TEMP:  72;

MINOT AFB      FAIR      63  60  89 CALM      29.80S
GARRISON         N/A     60  59  96 CALM      29.81R
WILLISTON      FAIR      66  59  78 NE10      29.81R
6HR MIN TEMP:  66; 6HR MAX TEMP:  75;

DICKINSON      FAIR      68  62  81 W9        29.82R
6HR MIN TEMP:  67; 6HR MAX TEMP:  70;

HETTINGER      FAIR      65  61  87 SW6       29.86R
6HR MIN TEMP:  65; 6HR MAX TEMP:  73;

$$

 *****  OTHER AIRPORT OBSERVATIONS IN OUR AREA  *****

CITY           SKY/WX    TMP DP  RH WIND       PRES   REMARKS
WALHALLA       NOT AVBL
GRAFTON AIRPOR FAIR      68  64  88 E10       29.81F
VALLEY CITY AR FAIR      70  70 100 SE6       29.80S
CANDO          NOT AVBL
CAVALIER APRT  FAIR      64  61  88 CALM      29.81F
GWINNER        SUNNY     70  68  94 E8        29.79R
SHEYENNE NWR     N/A     70  70 100 E3        29.95S
ROLLA            N/A     63  63 100 N3        29.86S
 ***** THE ABOVE OBSERVATIONS ARE NON NWS ARE NOT QUALITY
       CONTROLLED AND MAY MIS-REPORT RAIN FOR SNOW...
$$

  *****  WEATHER ACROSS NORTHERN MINNESOTA  *****

CITY           SKY/WX    TMP DP  RH WIND       PRES   REMARKS
FLAG ISLAND    FAIR      66  63  88 NE3       29.91F HAZE
WARROAD        FAIR      66  59  77 E8        29.89F
ROSEAU         FAIR      66  59  77 E5        29.88F
HALLOCK        FAIR      68  61  77 E10       29.82F
THF RVR FALLS  FAIR      67  60  78 E8        29.86F
6HR MIN TEMP:  65; 6HR MAX TEMP:  69; 6HR PCP: TRACE;

BAUDETTE       FAIR      61  56  83 E7        29.92F
6HR MIN TEMP:  59; 6HR MAX TEMP:  62; 6HR PCP:  0.04;

WASKISH        FAIR      63  55  77 E5        29.91F
CROOKSTON      FAIR      70  64  83 E8        29.81F
STEPHEN NDAWN    N/A     68  63  83 E7          N/A
GREENBUSH NDAW   N/A     64  57  77 E6          N/A
$$
  *****  WEATHER ACROSS CENTRAL AND WEST MINNESOTA  *****

CITY           SKY/WX    TMP DP  RH WIND       PRES   REMARKS
FOSSTON        FAIR      66  61  82 E3        29.86F
BEMIDJI        FAIR      66  61  83 E6        29.89F
PARK RAPIDS    FAIR      70  65  84 E6        29.88F
6HR MIN TEMP:  66; 6HR MAX TEMP:  71;

ELBOW LAKE     FAIR      71  68  92 E12G17    29.89R
6HR MIN TEMP:  68; 6HR MAX TEMP:  71;

WADENA         FAIR      66  66 100 E3        29.88R
DETROIT LAKES  FAIR      72  64  78 SE8       29.86F
MOORHEAD       FAIR      73  68  83 E6        29.80F
FERGUS FALLS   FAIR      73  70  88 SE10      29.84R
MORRIS MN      FAIR      72  70  94 SE7       29.87R
STAPLES        FAIR      70  64  83 SE3       29.88R
$$
  *****  WEATHER ELSEWHERE ACROSS MINNESOTA  *****

CITY           SKY/WX    TMP DP  RH WIND       PRES   REMARKS
DULUTH         FAIR      64  61  90 CALM      29.94F
6HR MIN TEMP:  61; 6HR MAX TEMP:  66;

INTRNTL FALLS  FAIR      60  55  83 CALM      29.94F
6HR MIN TEMP:  51; 6HR MAX TEMP:  60; 6HR PCP:  0.09;

ELY            FAIR      59  57  94 CALM      29.97F
CLOQUET        FAIR      64  61  88 CALM      29.93F
WHEATON        FAIR      72  68  88 SE13      29.83R FOG
BRAINERD       FAIR      66  64  93 CALM      29.88F FOG
6HR MIN TEMP:  63; 6HR MAX TEMP:  68;

HIBBING        FAIR      58  58 100 CALM      29.96R
6HR MIN TEMP:  53; 6HR MAX TEMP:  58;

ALEXANDRIA     FAIR      69  68  96 E9        29.90R FOG
6HR MIN TEMP:  68; 6HR MAX TEMP:  70;

SAINT CLOUD    FAIR      66  66 100 E6        29.89F FOG
6HR MIN TEMP:  61; 6HR MAX TEMP:  66;

MINNEAPOLIS    FAIR      72  66  81 SE12      29.90R
6HR MIN TEMP:  69; 6HR MAX TEMP:  75;

$$

  *****  WEATHER ACROSS SOUTH DAKOTA  *****

CITY           SKY/WX    TMP DP  RH WIND       PRES   REMARKS
SIOUX FALLS    LGT RAIN  76  70  82 S6        29.86R
6HR MIN TEMP:  75; 6HR MAX TEMP:  77; 6HR PCP:  0.01;

BROOKINGS      TSTM      72  70  94 CALM      29.92R
WATERTOWN      FAIR      72  69  90 S12       29.86R
6HR MIN TEMP:  69; 6HR MAX TEMP:  73;

HURON          FAIR      73  72  96 S10       29.82F
6HR MIN TEMP:  72; 6HR MAX TEMP:  74;

SISSETON         N/A     72  70  93 SE13      29.80F
ABERDEEN       FAIR      70  67  90 S10       29.76R
6HR MIN TEMP:  68; 6HR MAX TEMP:  74; 6HR PCP:  0.05;

MITCHELL       FAIR      75  73  93 NE7       29.85R
PIERRE         NOT AVBL
MOBRIDGE       FAIR      69  63  81 SE7       29.75F
RAPID CITY     FAIR      63  61  93 SE5       29.90F
6HR MIN TEMP:  63; 6HR MAX TEMP:  67; 6HR PCP:  0.22;

$$

  *****  SOME WEATHER IN NEARBY STATES *****

CITY           SKY/WX    TMP DP  RH WIND       PRES   REMARKS
GLASGOW MT     FAIR      66  54  65 SE10      29.83S
6HR MIN TEMP:  65; 6HR MAX TEMP:  73;

GREAT FALLS MT FAIR      60  26  27 CALM      30.03R
6HR MIN TEMP:  55; 6HR MAX TEMP:  66;

CHEYENNE WY    FAIR      63  52  67 SW5       30.13S
6HR MIN TEMP:  62; 6HR MAX TEMP:  67;

SCOTTSBLUFF NE FAIR      65  60  84 N7        29.97R
6HR MIN TEMP:  64; 6HR MAX TEMP:  77;

OMAHA NE       MOCLDY    82  70  66 SE10      29.84S
6HR MIN TEMP:  82; 6HR MAX TEMP:  88; 6HR PCP:  0.01;

DES MOINES IA  MOCLDY    76  73  91 S7        29.89S
6HR MIN TEMP:  75; 6HR MAX TEMP:  77; 6HR PCP: TRACE;

DAVENPORT IA   LGT RAIN  72  70  93 S8        29.97F
6HR MIN TEMP:  70; 6HR MAX TEMP:  72; 6HR PCP:  0.11;

CHICAGO IL     CLOUDY    75  68  78 NE9       29.96F
6HR MIN TEMP:  73; 6HR MAX TEMP:  77;

EAU CLAIRE WI  FAIR      65  64  97 NE3       29.93S FOG
6HR MIN TEMP:  61; 6HR MAX TEMP:  65;

LA CROSSE WI   FAIR      71  69  93 E6        29.93S
6HR MIN TEMP:  68; 6HR MAX TEMP:  72;

$$

  *****  SOME NATIONAL WEATHER *****

CITY           SKY/WX    TMP DP  RH WIND       PRES   REMARKS
LA GUARDIA NY  FAIR      80  71  74 NW6       29.90R
6HR MIN TEMP:  77; 6HR MAX TEMP:  80;

RALEIGH NC     PTSUNNY   79  74  84 SW6       30.01R
6HR MIN TEMP:  74; 6HR MAX TEMP:  79;

ATLANTA GA     FAIR      78  74  87 NW7       30.06R
6HR MIN TEMP:  76; 6HR MAX TEMP:  79;

NEW ORLEANS LA MOCLDY    78  76  93 W6        30.04R
6HR MIN TEMP:  77; 6HR MAX TEMP:  79;

OKLAHOMA CITY  FAIR      75  69  81 S7        30.01R
6HR MIN TEMP:  74; 6HR MAX TEMP:  82;

ALBUQUERQUE NM FAIR      67  55  65 SE6       30.21R
6HR MIN TEMP:  67; 6HR MAX TEMP:  74;

SALT LAKE CITY MOCLDY    79  55  43 SE7       30.03R
6HR MIN TEMP:  79; 6HR MAX TEMP:  87;

LOS ANGELES CA MOCLDY    67  63  87 NE3       29.93S
6HR MIN TEMP:  66; 6HR MAX TEMP:  69;

BOISE ID       FAIR


USA.gov is the U.S. government's official web portal to all federal, state and local government web resources and services.